, SD

(GMT )
Rapid City

Weather History for KRAP - March, 2013

Change the Weather History Date:

Saturday, March 23, 2013

  Actual Average Record
Temperature  
Mean Temperature 17 °F 38 °F  
Max Temperature 26 °F 50 °F 76 °F (1967)
Min Temperature 8 °F 25 °F -3 °F (1965)
Degree Days  
Heating Degree Days 48 27  
Month to date heating degree days 719 709  
Since 1 July heating degree days 5708 5919  
Cooling Degree Days 0 0  
Month to date cooling degree days 0 0  
Year to date cooling degree days 0 0  
Moisture  
Dew Point 11 °F    
Average Humidity 73    
Maximum Humidity 84    
Minimum Humidity 62    
Precipitation  
Precipitation T in 0.03 in 0.78 in (2009)
Month to date precipitation 0.79 0.65  
Year to date precipitation 1.40 1.39  
Snow  
Snow T in 0.30 in 8.00 in (2009)
Month to date snowfall 12.4 6.5  
Since 1 July snowfall 32.8 29.9  
Snow Depth 4.00 in    
Sea Level Pressure  
Sea Level Pressure 30.26 in    
Wind  
Wind Speed 16 mph (North)    
Max Wind Speed 31 mph    
Max Gust Speed 37 mph    
Visibility 10 miles    
Events Snow    
T = Trace of Precipitation, MM = Missing Value Source: NWS Daily Summary

Daily Weather History Graph

Daily Weather History Graph

Search for Another Location

Airport or City:

Trip Planner

Search our weather history database for the weather conditions in past years. The results will help you decide how hot, cold, wet, or windy it might be!

Date:

Astronomy

Mar. 23, 2013 Rise Set
Actual Time 6:49 AM MDT 7:08 PM MDT
Civil Twilight 6:20 AM MDT 7:37 PM MDT
Nautical Twilight 5:46 AM MDT 8:11 PM MDT
Astronomical Twilight 5:11 AM MDT 8:46 PM MDT
Moon 3:31 PM MDT (3/23) 4:34 AM MDT (3/23)
Length of Visible Light 13h 17m
Length of Day
12h 19m
Waxing Gibbous, 85% of the Moon is Illuminated
Mar 23
Waxing Gibbous
Mar 27
Full
Apr 2
Last Quarter
Apr 10
New
Apr 18
First Quarter

Hourly Weather History & Observations

Time (MDT) Temp. Windchill Dew Point Humidity Pressure Visibility Wind Dir Wind Speed Gust Speed Precip Events Conditions
12:52 AM 19.9 °F 2.5 °F 12.9 °F 74% 30.18 in 8.0 mi NNW 25.3 mph - 0.00 in Snow Light Snow
1:07 AM 19.4 °F 1.8 °F 12.2 °F 74% 30.06 in 8.0 mi NNW 25.3 mph 31.1 mph 0.00 in Snow Light Snow
1:52 AM 17.1 °F -0.3 °F 10.0 °F 74% 30.17 in 9.0 mi NNW 21.9 mph - 0.00 in Snow Light Snow
2:52 AM 16.0 °F -1.3 °F 9.0 °F 74% 30.19 in 9.0 mi NNW 20.7 mph - 0.00 in Snow Light Snow
3:52 AM 15.1 °F -2.5 °F 8.1 °F 74% 30.19 in 9.0 mi NNW 20.7 mph - 0.00 in Snow Light Snow
4:52 AM 15.1 °F -1.6 °F 9.0 °F 77% 30.21 in 9.0 mi NNW 18.4 mph - 0.00 in Snow Light Snow
5:52 AM 12.0 °F 1.5 °F 7.0 °F 80% 30.25 in 9.0 mi North 6.9 mph - 0.00 in Snow Light Snow
6:52 AM 9.0 °F -5.1 °F 3.9 °F 80% 30.25 in 9.0 mi NNW 10.4 mph - 0.00 in Snow Light Snow
7:52 AM 10.9 °F 0.2 °F 5.0 °F 77% 30.28 in 9.0 mi North 6.9 mph - 0.00 in   Clear
8:52 AM 19.0 °F 10.0 °F 10.0 °F 68% 30.28 in 9.0 mi North 6.9 mph - N/A   Clear
9:52 AM 19.9 °F 7.9 °F 12.0 °F 71% 30.29 in 10.0 mi North 11.5 mph - N/A   Partly Cloudy
10:14 AM 21.2 °F 6.0 °F 14.0 °F 74% 30.15 in 10.0 mi NNW 19.6 mph - N/A   Mostly Cloudy
10:27 AM 21.2 °F 5.2 °F 15.8 °F 80% 30.15 in 10.0 mi North 21.9 mph - N/A   Scattered Clouds
10:52 AM 21.9 °F 6.5 °F 16.0 °F 78% 30.29 in 10.0 mi NNW 20.7 mph - N/A   Clear
11:52 AM 23.0 °F 7.2 °F 15.1 °F 72% 30.28 in 10.0 mi North 23.0 mph - N/A   Clear
12:52 PM 23.0 °F 7.2 °F 15.1 °F 72% 30.27 in 10.0 mi North 23.0 mph 28.8 mph N/A   Clear
1:52 PM 25.0 °F 11.3 °F 16.0 °F 69% 30.26 in 10.0 mi North 18.4 mph - N/A   Clear
2:52 PM 25.0 °F 8.6 °F 15.1 °F 66% 30.26 in 10.0 mi North 27.6 mph 32.2 mph N/A   Clear
3:52 PM 24.1 °F 8.3 °F 15.1 °F 69% 30.27 in 10.0 mi North 24.2 mph - N/A   Clear
4:52 PM 24.1 °F 8.3 °F 14.0 °F 65% 30.27 in 10.0 mi North 24.2 mph 33.4 mph N/A   Clear
5:52 PM 23.0 °F 6.0 °F 12.9 °F 65% 30.29 in 10.0 mi North 27.6 mph 33.4 mph N/A   Clear
6:52 PM 21.0 °F 5.4 °F 12.0 °F 68% 30.31 in 10.0 mi North 20.7 mph - N/A   Clear
7:52 PM 19.0 °F 3.6 °F 10.9 °F 71% 30.32 in 10.0 mi North 18.4 mph - N/A   Clear
8:52 PM 14.0 °F - 8.1 °F 77% 30.35 in 10.0 mi Calm Calm - N/A   Clear
9:52 PM 12.9 °F -0.2 °F 8.1 °F 81% 30.37 in 10.0 mi North 10.4 mph - N/A   Clear
10:52 PM 10.9 °F -3.4 °F 7.0 °F 84% 30.36 in 10.0 mi North 11.5 mph - N/A   Clear
11:52 PM 12.9 °F -0.9 °F 8.1 °F 81% 30.35 in 10.0 mi North 11.5 mph - N/A   Clear